Theta_e
323 324 324 326 319 317 320 322 322 322 320 335 337 337 338 340 340 339 344 338 341 325 325 331 341 342 340 338 336 332 329 330 332 332 333 332 332 328 322 319 318 318 319 320 320 320 319 319 318
322 323 325 325 318 320 322 322 324 321 323 324 331 333 333 336 344 345 347 342 342 323 323 330 340 342 340 338 337 330 329 325 330 331 331 332 327 322 319 319 319 320 320 321 321 321 321 320 321
322 322 324 319 317 320 322 323 323 323 325 324 327 331 333 334 338 343 341 345 333 322 322 328 337 340 340 338 337 329 326 322 322 324 331 327 321 319 319 319 320 321 322 322 322 321 321 321 321
321 322 324 321 323 322 322 323 323 324 326 328 329 328 327 329 334 340 342 335 326 322 323 326 333 337 338 337 334 326 321 321 321 326 327 322 320 319 320 320 321 322 322 321 321 320 320 320 320
319 320 319 322 323 322 323 324 325 324 324 326 329 326 326 334 338 339 339 339 328 323 323 326 332 335 337 336 330 323 320 322 325 325 322 319 319 320 320 321 321 321 321 320 320 320 320 320 320
318 319 319 321 322 323 323 324 325 324 324 327 327 326 326 326 335 342 342 340 333 331 322 326 332 332 332 332 328 324 320 321 323 322 320 319 319 320 320 321 321 321 320 320 320 319 320 319 320
315 314 318 319 321 321 323 324 324 322 322 323 327 325 327 326 330 336 340 342 336 329 326 323 331 334 332 330 327 324 320 320 321 321 320 320 321 321 321 321 320 320 320 320 319 319 319 319 319
315 311 316 317 320 320 321 323 323 323 323 324 326 326 326 325 328 331 339 342 339 334 329 324 327 333 333 332 329 325 322 320 320 320 320 321 321 321 321 321 321 320 320 320 319 319 318 318 318
315 313 314 316 317 319 320 319 321 321 321 322 321 324 328 325 327 335 340 342 344 335 330 326 325 331 331 330 332 327 324 321 320 320 321 321 321 321 321 321 321 320 320 320 319 319 318 318 317
312 310 313 315 317 316 317 317 318 319 319 319 321 323 327 326 327 331 339 343 346 345 335 328 325 327 332 332 331 329 326 324 321 320 321 321 322 321 321 321 321 320 320 320 319 319 318 318 318
312 312 312 314 316 317 316 317 318 318 317 319 320 320 327 325 325 326 331 334 341 346 344 332 325 324 328 332 333 331 329 327 323 321 321 321 321 321 321 321 321 321 321 320 320 320 320 320 321
311 312 313 314 315 315 315 317 317 318 318 319 319 320 322 327 324 325 326 330 338 346 348 343 328 323 324 329 331 333 328 326 324 322 321 321 321 321 321 321 321 321 321 320 322 326 324 329 327
310 310 312 313 313 314 315 314 315 316 317 318 318 319 322 326 327 324 324 325 329 339 343 347 343 331 324 324 327 330 331 326 324 324 322 321 321 322 322 321 321 321 321 322 326 329 330 333 333
312 312 311 313 314 313 313 314 315 316 316 317 318 321 325 326 326 326 324 324 325 326 330 339 343 347 341 324 322 325 327 327 325 325 324 322 321 321 321 321 321 321 322 324 326 330 332 334 334
312 311 309 311 313 312 313 312 313 315 317 319 319 319 322 326 326 327 327 326 325 325 326 328 329 335 344 345 327 322 324 327 328 326 325 324 322 321 321 321 321 321 321 324 326 327 330 331 332
309 309 309 310 312 312 313 313 313 316 315 317 317 318 319 321 325 326 326 326 325 325 326 326 327 332 336 344 343 329 322 325 326 327 325 324 324 323 322 321 321 321 321 322 325 327 328 328 330
306 307 309 309 310 311 312 311 312 315 315 313 314 316 317 319 319 325 326 326 325 325 325 325 326 327 334 340 340 331 325 327 327 326 325 324 324 323 322 321 320 320 321 321 324 330 332 328 328
308 308 309 309 310 311 310 311 311 314 314 314 314 314 316 318 319 323 325 325 324 324 323 325 326 324 329 343 341 333 331 335 340 337 333 332 327 322 321 320 320 322 326 327 326 330 334 333 330
309 309 310 311 312 311 311 312 311 312 313 313 314 313 316 317 318 318 320 322 323 325 325 329 328 325 334 343 343 336 338 338 336 332 338 340 334 329 325 329 331 337 338 339 340 339 337 336 334
310 310 311 311 312 310 311 311 311 311 312 314 314 313 315 318 318 318 319 322 323 323 325 330 332 335 333 336 344 341 345 343 341 340 333 331 340 339 340 337 342 343 342 342 342 339 338 336 334
311 311 311 312 313 312 312 311 311 312 313 315 315 315 315 317 318 318 319 320 321 322 323 325 327 332 334 338 342 344 343 342 343 342 342 341 342 342 341 339 338 340 344 341 337 334 335 334 335
314 313 313 312 313 311 312 312 311 311 311 311 312 314 315 315 316 317 318 320 321 321 322 323 321 319 323 333 338 340 339 341 341 340 339 340 341 340 340 336 338 337 336 338 333 337 337 337 336
316 315 312 312 311 310 311 310 310 311 311 311 310 313 316 316 316 315 316 318 318 321 322 320 320 320 319 319 317 320 331 341 341 340 339 338 339 339 339 338 331 331 336 333 333 334 336 335 336
316 315 313 309 308 310 311 310 311 312 310 311 313 316 317 317 317 317 317 315 320 321 320 320 319 319 318 318 317 317 317 317 318 332 336 335 335 335 335 336 338 334 331 331 330 330 333 335 336
315 316 315 314 312 315 311 311 312 311 312 314 315 315 316 316 317 317 316 315 321 321 320 319 318 318 317 317 317 316 316 316 316 320 325 327 332 334 336 335 337 336 335 334 331 330 331 331 330
317 316 316 322 319 314 314 315 313 313 315 316 315 314 314 315 315 316 316 316 321 321 319 318 317 317 317 316 316 316 316 316 316 316 316 317 318 320 323 328 331 332 335 336 336 336 335 333 333
317 317 317 317 316 317 314 314 314 314 315 315 315 315 314 315 315 316 318 320 321 319 317 317 317 317 316 315 315 316 316 317 317 317 317 316 316 316 315 317 324 329 328 330 335 336 333 331 330
315 316 318 317 320 320 316 315 315 315 316 315 315 313 315 315 316 316 315 317 318 318 317 317 316 316 315 315 316 317 317 318 316 316 316 316 317 318 318 319 318 318 324 331 331 332 332 331 333
312 316 318 317 318 315 315 315 314 317 315 315 314 315 315 315 316 315 316 316 315 315 317 317 317 316 316 316 316 316 314 315 316 317 317 317 317 317 316 317 317 317 318 319 320 323 329 328 333
313 314 316 316 317 318 316 313 314 314 313 312 313 316 316 316 315 316 316 316 316 316 316 317 317 317 317 317 317 316 315 315 316 316 317 317 317 318 318 317 319 318 317 316 316 319 321 319 322
Wind_Speed
9 11 13 5 2 4 2 4 3 8 8 9 8 4 11 10 1 3 14 24 16 30 32 31 31 30 28 26 25 24 25 25 25 24 23 20 18 17 17 18 17 17 16 15 14 13 12 11 10
10 11 6 2 4 2 4 4 4 3 13 12 7 5 10 2 10 5 10 25 18 29 31 31 31 30 28 26 24 25 26 25 26 26 24 22 21 20 19 19 18 18 16 15 13 12 11 10 9
9 9 4 3 2 5 4 5 4 19 19 10 1 7 4 3 6 4 10 17 23 28 29 30 32 30 28 26 24 25 25 26 27 27 26 24 23 22 20 19 18 17 15 14 12 11 10 9 8
5 2 1 3 6 6 4 4 10 16 12 5 6 4 4 5 1 5 11 15 24 27 28 29 31 31 29 27 26 25 25 27 28 29 27 25 24 23 21 19 17 15 14 12 11 10 9 8 6
4 1 1 1 5 7 3 4 13 10 4 7 10 2 4 8 7 8 7 13 21 25 27 29 30 30 29 28 27 28 28 29 30 29 27 25 23 22 20 19 17 15 13 10 9 8 7 5 4
3 2 2 4 7 10 1 5 12 9 7 5 4 9 3 9 6 9 8 15 20 19 25 29 31 30 31 30 30 29 31 31 30 28 27 26 24 21 19 17 15 14 11 9 8 6 5 4 2
5 4 5 4 4 7 5 2 3 9 12 3 13 7 9 11 6 5 11 11 23 24 24 28 32 32 31 32 32 31 31 32 31 29 27 25 23 21 19 16 14 12 10 8 6 4 3 2 1
4 4 3 5 5 11 6 4 4 15 22 22 15 3 6 18 15 12 11 17 24 27 28 29 32 33 34 33 32 32 31 30 30 29 28 26 24 21 19 17 14 12 9 7 5 3 2 2 2
5 2 4 7 8 12 17 4 10 17 21 23 14 19 13 19 17 18 20 22 26 29 31 32 34 36 35 36 34 32 31 30 29 29 28 27 24 22 20 17 15 12 9 7 5 4 4 4 5
5 4 7 5 7 6 18 9 13 10 24 25 34 18 16 21 18 17 21 22 25 30 33 33 35 38 37 36 37 36 33 32 32 31 30 27 25 22 20 18 15 13 10 8 6 6 6 6 6
6 6 5 6 13 18 19 19 17 8 13 23 22 31 18 15 19 16 16 15 18 23 32 35 36 38 39 39 39 38 37 35 33 32 30 28 26 24 21 19 17 14 11 9 8 8 9 8 6
3 7 11 15 22 23 8 27 16 17 23 31 32 30 17 22 20 20 19 17 17 20 24 26 32 35 38 39 40 40 40 39 37 35 32 30 28 25 23 20 17 14 12 10 9 6 5 4 3
5 5 15 22 26 26 27 20 18 33 29 35 34 34 20 27 18 17 19 18 17 19 20 26 25 29 35 38 39 40 41 40 38 35 33 32 29 26 24 21 19 16 14 12 9 7 5 4 4
2 8 10 9 15 15 9 18 15 27 22 27 28 23 16 20 20 22 21 20 20 19 18 19 18 25 28 36 39 41 42 40 38 36 35 33 30 28 26 24 21 18 15 13 12 10 9 8 8
6 5 7 4 4 4 5 7 13 17 12 16 18 18 20 19 19 25 25 21 20 19 16 17 17 18 20 28 35 40 42 41 40 38 36 34 32 30 28 26 24 21 17 15 14 13 12 11 11
5 2 3 4 1 6 5 11 13 24 15 19 22 24 25 25 21 25 28 25 24 22 23 22 21 23 22 28 28 33 41 41 40 38 37 35 33 31 30 28 27 23 20 19 18 16 16 16 15
5 5 6 7 6 4 6 11 7 17 20 19 25 28 29 31 29 27 31 28 25 27 27 27 25 23 24 27 30 33 36 37 38 37 37 37 36 33 32 30 28 24 23 22 21 19 19 18 17
5 5 6 5 7 4 8 18 10 17 13 26 28 30 31 31 32 30 30 32 28 28 30 28 26 23 25 29 32 35 30 27 27 32 34 34 35 34 33 31 29 25 24 24 23 21 19 22 20
5 5 12 13 15 4 13 17 11 13 16 21 28 24 30 31 26 28 32 33 31 30 29 28 27 25 30 32 34 33 35 33 34 45 29 30 32 31 30 28 24 24 23 23 20 18 19 23 23
8 12 14 12 14 6 9 11 14 6 8 20 25 22 27 28 27 27 31 31 33 31 30 28 28 29 28 29 33 33 32 28 31 33 29 23 40 28 28 24 24 24 22 20 21 19 22 23 23
7 6 9 12 7 5 2 7 8 5 7 13 11 8 12 22 24 28 29 30 31 31 30 29 29 30 29 31 33 36 34 33 31 28 31 36 37 33 27 27 25 22 22 21 23 22 21 22 23
3 4 7 7 3 7 3 11 10 7 7 5 14 13 16 14 15 23 27 30 32 32 33 31 28 26 27 29 32 35 36 39 35 28 27 36 32 29 29 38 26 23 28 25 27 25 23 22 22
7 4 5 4 4 2 3 1 9 4 7 10 10 17 19 23 20 21 26 33 35 35 34 28 24 23 22 22 21 21 25 34 33 30 28 26 28 34 41 37 37 51 34 34 31 32 32 25 19
3 3 2 1 3 2 6 7 10 12 8 5 5 15 23 29 33 33 29 31 42 39 35 30 27 25 24 25 23 21 20 19 22 26 27 27 27 27 27 30 37 41 42 51 46 54 37 32 25
8 6 4 4 2 11 5 4 17 6 8 6 5 19 26 30 36 40 31 31 44 39 37 33 26 22 18 18 19 20 21 19 20 21 20 18 16 18 28 31 32 34 36 40 45 48 49 44 50
1 5 4 6 4 7 5 7 6 5 3 4 12 17 21 23 27 33 32 31 43 40 33 27 21 19 18 18 17 17 15 10 12 14 14 13 12 13 13 14 20 20 23 28 34 38 42 45 40
4 5 4 3 1 2 4 7 10 6 1 3 10 21 24 17 12 4 19 38 40 32 27 24 21 16 14 12 10 11 12 13 12 11 10 9 10 9 11 13 15 16 19 21 24 25 27 30 34
4 3 2 2 4 4 4 4 8 10 6 4 5 5 11 21 21 13 4 13 27 29 24 21 19 13 11 12 14 12 14 14 11 11 10 9 7 8 10 11 13 17 18 17 18 21 26 32 33
3 2 2 1 3 4 1 4 4 4 9 8 7 5 4 10 13 16 17 7 9 18 28 27 20 18 20 19 17 14 12 13 11 10 8 7 7 6 8 11 11 12 14 16 19 22 24 27 30
4 3 5 2 3 3 2 5 6 10 16 13 17 20 15 12 10 12 19 17 15 9 17 28 30 30 26 23 23 20 16 16 17 16 15 16 15 15 15 13 14 15 18 20 19 21 25 27 31
Wind_Direction
317 331 326 323 42 65 258 273 257 324 9 357 54 115 123 48 191 235 146 173 172 172 170 170 170 169 170 171 169 168 168 168 167 166 164 163 161 157 153 146 141 135 125 118 115 112 112 114 116
313 325 325 357 100 105 267 238 305 295 322 306 347 12 49 46 52 64 146 168 185 173 171 171 172 172 172 173 170 169 170 170 170 169 168 165 160 156 150 147 139 131 127 124 122 120 117 116 115
304 324 317 92 131 184 226 144 304 317 348 309 175 30 51 24 51 107 135 176 172 177 174 172 173 175 174 174 172 171 170 170 171 169 167 162 158 154 151 145 138 133 131 128 125 123 119 117 117
291 318 73 108 235 251 239 7 325 323 3 310 74 42 39 19 342 120 134 155 173 182 176 175 175 178 176 175 173 170 167 167 167 165 163 161 158 155 151 146 141 139 134 133 132 126 122 115 109
268 193 70 251 260 263 239 339 302 295 357 315 110 45 68 54 150 136 124 163 174 182 180 178 178 179 178 176 174 168 166 165 165 164 163 162 161 158 154 150 148 145 144 143 137 131 124 116 109
189 123 112 218 243 271 341 351 310 311 34 276 106 133 118 85 137 179 172 172 181 185 184 182 181 183 180 178 175 172 169 167 168 167 166 166 164 161 158 156 155 153 153 149 150 148 144 144 130
149 107 208 199 262 290 285 337 329 311 320 258 262 136 159 145 141 150 184 189 187 190 190 187 184 185 185 182 179 176 175 173 172 172 171 170 168 166 163 163 165 163 161 164 169 172 184 168 169
188 109 204 206 233 265 260 284 293 316 304 319 215 218 217 170 170 169 167 195 199 196 194 192 189 189 188 186 184 181 180 180 179 178 176 175 174 173 171 171 174 175 175 181 191 202 231 278 301
180 121 224 214 194 248 283 302 295 303 288 300 301 301 216 165 164 176 169 182 197 202 200 195 192 192 194 191 188 186 185 185 186 185 183 181 181 180 179 178 181 186 188 200 213 236 263 286 302
159 175 226 219 231 268 279 271 293 305 295 294 304 317 231 175 162 177 176 181 189 202 203 201 198 195 196 197 193 190 189 192 192 192 190 188 187 189 187 188 190 194 198 215 233 251 268 284 300
194 223 214 243 245 255 270 285 282 269 280 280 289 301 188 191 171 167 164 190 198 199 204 203 203 200 200 200 199 196 193 196 197 197 197 193 195 195 197 198 199 202 209 220 242 259 273 281 283
250 252 256 268 261 256 251 275 270 262 263 281 289 286 273 217 175 164 164 169 176 181 198 206 207 211 208 207 205 203 200 200 201 201 200 200 200 201 204 208 211 212 221 233 249 258 257 273 279
205 253 269 275 276 271 273 268 266 267 273 283 283 275 256 218 219 192 171 170 173 177 186 205 209 215 217 214 214 213 209 207 207 206 205 206 206 208 212 213 218 224 230 234 240 249 257 242 247
273 274 275 288 287 279 260 268 267 274 285 272 268 259 258 213 216 207 194 186 180 181 183 187 200 217 218 223 219 218 221 216 213 213 213 212 212 213 219 221 223 227 234 239 240 251 259 258 260
264 285 315 233 247 266 300 286 256 286 256 232 246 257 266 235 208 210 213 208 194 182 188 194 205 205 221 228 227 224 222 221 220 218 219 220 220 220 223 227 230 233 238 246 250 253 262 267 265
1 83 301 274 257 262 173 259 278 292 238 238 251 261 260 257 255 226 224 225 207 212 212 215 227 217 216 224 232 230 226 225 224 224 226 226 228 228 229 232 235 238 242 249 255 260 265 270 275
356 261 274 306 210 223 191 270 259 285 288 264 261 258 257 250 245 246 224 229 227 217 213 213 218 222 220 222 225 225 223 222 224 226 230 231 232 234 236 236 240 239 243 249 255 261 273 278 282
268 297 287 286 287 178 271 274 273 289 288 284 290 265 252 241 235 237 221 218 232 222 215 211 211 219 227 219 224 224 212 230 240 241 234 233 232 233 237 238 239 244 245 248 251 258 269 278 280
238 260 264 279 278 278 274 272 276 275 292 294 299 254 237 240 239 234 231 224 217 215 211 211 215 218 218 220 225 225 220 216 211 230 245 245 237 225 226 232 236 235 239 248 258 262 266 273 280
245 259 274 273 261 194 252 260 278 244 260 285 287 256 230 224 227 218 218 210 210 215 216 210 210 213 217 221 227 225 223 226 227 228 217 237 239 225 223 225 237 241 244 252 262 272 277 279 283
258 239 270 265 276 258 252 283 284 277 279 281 279 288 270 222 207 201 200 203 210 213 217 215 212 213 215 218 222 228 232 238 235 231 230 235 238 235 234 228 232 253 256 265 276 278 277 283 283
265 282 280 267 228 261 154 275 279 273 272 259 274 289 293 276 249 229 218 212 213 218 217 215 212 205 211 220 226 230 230 236 242 247 243 238 238 236 236 230 222 234 255 273 275 278 277 277 280
235 303 285 300 262 8 239 202 281 248 271 267 279 295 306 304 282 265 245 234 229 215 209 205 210 213 218 228 231 228 234 239 243 247 246 250 245 244 244 246 246 238 233 259 244 274 278 277 280
322 314 292 62 131 244 250 187 271 270 238 232 232 296 306 298 291 285 272 248 225 206 200 201 205 204 210 217 230 247 259 250 244 248 250 247 245 247 254 249 240 237 244 238 226 255 274 271 278
49 40 318 292 250 252 169 213 245 283 276 249 278 312 310 287 280 273 258 232 210 195 193 197 198 205 221 233 242 250 255 250 247 247 252 252 250 247 241 246 247 246 245 243 241 236 256 264 272
162 167 193 271 248 275 339 242 263 256 328 74 36 14 347 309 276 260 242 226 196 190 188 191 201 214 226 239 245 247 247 243 242 242 244 249 252 253 256 257 254 257 255 249 252 254 258 259 259
188 198 161 223 250 297 242 300 293 293 235 8 48 32 31 32 27 220 200 192 183 183 187 198 204 213 236 246 248 254 254 254 259 252 241 243 251 259 257 254 252 254 255 258 259 261 266 276 274
173 142 245 250 225 210 264 254 247 326 315 318 360 46 20 37 46 47 49 169 182 196 202 207 204 217 231 228 232 243 251 251 257 251 247 253 260 272 271 266 265 262 262 257 261 261 263 268 269
325 268 234 263 236 229 284 255 210 289 297 311 286 281 24 12 21 33 32 16 275 230 208 206 214 230 230 230 229 226 237 226 232 232 222 224 239 261 275 277 273 279 282 273 264 265 262 269 266
200 221 161 250 292 273 286 273 40 11 322 322 311 313 292 284 308 315 329 332 357 297 256 231 221 229 235 235 229 226 231 219 223 233 237 242 250 260 265 265 271 288 302 302 286 276 276 273 273